Tracking 30995 objects as of 5-Jul-2025
HD Live streaming from Space Station
objects crossing your sky now

TITAN 3C TRANSTAGE DEB

Track TITAN 3C TRANSTAGE DEB now!


NORAD ID: 34168
Int'l Code: 1965-108DB
Perigee: 1,064.2 km
Apogee: 30,469.3 km
Inclination: 27.8 °
Period: 546.3 minutes
Semi major axis: 22137 km
RCS: 0.0298 m2 (small)
Launch date: December 21, 1965
Source: United States (US)
Launch site: AIR FORCE EASTERN TEST RANGE (AFETR)

Note: This is SATELLITE DEBRIS
Your satellite tracking list
Your tracking list is empty




NASA's NSSDC Master Catalog

Two Line Element Set (TLE):
1 34168U 65108DB  25183.10787441 -.00000069  00000-0  00000-0 0  9999
2 34168  27.7556  79.5642 6641408 150.9995 359.5433  2.63574698189781
Source of the keplerian elements: AFSPC